TimePST,TemperatureF,Dew PointF,Humidity,Sea Level PressureIn,VisibilityMPH,Wind Direction,Wind SpeedMPH,Gust SpeedMPH,PrecipitationIn,Events,Conditions,WindDirDegrees,DateUTC
12:56 AM,41.0,37.0,86,30.36,10.0,South,3.5,-,N/A,,Overcast,170,2013-02-11 08:56:00
1:19 AM,41.0,37.4,87,30.34,9.0,SSE,5.8,-,N/A,,Overcast,160,2013-02-11 09:19:00
1:27 AM,41.0,37.4,87,30.34,5.0,SSE,4.6,-,0.00,Rain,Light Rain,160,2013-02-11 09:27:00
1:37 AM,41.0,37.4,87,30.34,6.0,SSE,3.5,-,0.00,,Overcast,160,2013-02-11 09:37:00
1:56 AM,41.0,37.0,86,30.36,8.0,SE,3.5,-,0.00,,Overcast,140,2013-02-11 09:56:00
2:56 AM,39.9,37.0,89,30.35,7.0,ESE,4.6,-,N/A,,Overcast,120,2013-02-11 10:56:00
3:56 AM,41.0,37.9,89,30.34,9.0,SSE,4.6,-,N/A,,Overcast,150,2013-02-11 11:56:00
4:56 AM,41.0,39.0,93,30.34,10.0,SSE,5.8,-,N/A,,Overcast,150,2013-02-11 12:56:00
5:35 AM,41.0,37.4,87,30.33,10.0,SSE,6.9,-,N/A,,Overcast,160,2013-02-11 13:35:00
5:56 AM,41.0,37.9,89,30.34,10.0,SSE,5.8,-,N/A,,Overcast,150,2013-02-11 13:56:00
6:56 AM,41.0,37.9,89,30.34,8.0,SE,9.2,-,N/A,,Overcast,140,2013-02-11 14:56:00
7:56 AM,42.1,37.9,85,30.34,8.0,SE,9.2,-,0.00,Rain,Light Rain,140,2013-02-11 15:56:00
8:43 AM,42.8,39.2,87,30.33,8.0,SSE,8.1,-,0.00,Rain,Light Rain,150,2013-02-11 16:43:00
8:56 AM,42.1,39.0,89,30.35,8.0,SSE,11.5,-,0.00,Rain,Light Rain,150,2013-02-11 16:56:00
9:56 AM,42.1,39.0,89,30.35,2.0,SE,10.4,-,0.00,Rain,Light Rain,140,2013-02-11 17:56:00
10:56 AM,43.0,39.9,89,30.35,2.0,SE,15.0,-,0.00,Rain,Light Rain,140,2013-02-11 18:56:00
11:56 AM,43.0,39.0,86,30.35,8.0,SE,15.0,-,0.01,Rain,Light Rain,140,2013-02-11 19:56:00
12:56 PM,43.0,39.9,89,30.35,7.0,SE,10.4,-,0.00,Rain,Light Rain,130,2013-02-11 20:56:00
1:12 PM,42.8,39.2,87,30.33,7.0,SE,11.5,-,0.00,Rain,Light Rain,140,2013-02-11 21:12:00
1:44 PM,42.8,41.0,93,30.33,2.0,SE,11.5,-,0.00,Rain,Light Rain,140,2013-02-11 21:44:00
1:56 PM,43.0,39.9,89,30.34,2.0,SE,12.7,-,0.00,Rain,Light Rain,140,2013-02-11 21:56:00
2:56 PM,44.1,41.0,89,30.34,2.0,SE,10.4,-,0.00,,Overcast,140,2013-02-11 22:56:00
3:13 PM,44.6,41.0,87,30.33,2.0,SSE,8.1,-,0.00,Rain,Light Rain,150,2013-02-11 23:13:00
3:56 PM,43.0,41.0,93,30.34,1.5,SE,10.4,-,0.00,Rain,Light Rain,140,2013-02-11 23:56:00
4:19 PM,42.8,39.2,87,30.33,1.5,SE,8.1,-,0.00,,Overcast,140,2013-02-12 00:19:00
4:56 PM,43.0,39.9,89,30.35,6.0,SE,5.8,-,0.00,Rain,Light Rain,130,2013-02-12 00:56:00
5:08 PM,42.8,39.2,87,30.33,2.0,ESE,5.8,-,0.01,Rain,Light Rain,120,2013-02-12 01:08:00
5:25 PM,42.8,39.2,87,30.33,2.0,ESE,5.8,-,0.01,Rain,Light Rain,110,2013-02-12 01:25:00
5:39 PM,42.8,39.2,87,30.34,2.0,ESE,8.1,-,0.01,Rain,Light Rain,120,2013-02-12 01:39:00
5:56 PM,43.0,39.9,89,30.35,2.0,ESE,5.8,-,0.01,Rain,Light Rain,120,2013-02-12 01:56:00
6:32 PM,42.8,39.2,87,30.34,2.0,SE,5.8,-,0.00,Rain,Light Rain,130,2013-02-12 02:32:00
6:56 PM,43.0,39.9,89,30.35,2.0,ESE,6.9,-,0.00,Rain,Light Rain,120,2013-02-12 02:56:00
7:29 PM,42.8,39.2,87,30.34,2.0,SE,8.1,-,0.00,,Overcast,140,2013-02-12 03:29:00
7:56 PM,43.0,39.9,89,30.35,7.0,SE,4.6,-,0.00,,Overcast,130,2013-02-12 03:56:00
8:41 PM,42.8,39.2,87,30.33,7.0,SE,11.5,-,N/A,,Overcast,140,2013-02-12 04:41:00
8:56 PM,43.0,39.9,89,30.35,10.0,SSE,12.7,-,N/A,,Overcast,160,2013-02-12 04:56:00
9:11 PM,42.8,39.2,87,30.34,10.0,SSE,8.1,-,N/A,,Overcast,160,2013-02-12 05:11:00
9:56 PM,43.0,39.9,89,30.35,8.0,SSE,10.4,-,N/A,,Overcast,150,2013-02-12 05:56:00
10:56 PM,43.0,41.0,93,30.35,6.0,SE,6.9,-,N/A,,Mostly Cloudy,140,2013-02-12 06:56:00
11:56 PM,43.0,41.0,93,30.36,6.0,SSE,10.4,-,N/A,,Overcast,150,2013-02-12 07:56:00